sat.trackr.live / text

‹ back to catalog

STARLINK-11635 [DTC]

NORAD 63193 · 2025-048L

PAYLOAD ACTIVE UNKNOWN

§ Identity

Operator
Country
US
Launch date
2025-03-13
Launch site
AFETR
Launch vehicle
Mass (kg)
RCS (m²)

Purposes: comms

External: N2YO · Heavens-Above · Gunter

§ Orbital elements

Epoch: 2026-05-24T22:06:51.266016Z

Period
91.67 min
Inclination
42.9990°
Eccentricity
0.0001530
Mean motion
15.70874653 rev/d
Perigee alt
355.4 km
Apogee alt
357.4 km
Semi-major
6,734.5 km
B*
1.4367e-3
RAAN
220.1062°
Arg perigee
62.6308°
Mean anomaly
297.4715°
Rev number
7,051

§ Raw data

STARLINK-11635 [DTC]1 63193U 25048L   26144.92142669  .00188411  00000+0  14367-2 0  99922 63193  42.9990 220.1062 0001530  62.6308 297.4715 15.70874653 70518

JSON: /api/v1/satellites/63193 · /tle

For live sub-satellite position, see the globe view (requires WebGL).

§ Visibility from observer

Set your observer location to see the next 7 days of passes ≥ 10°. The values pass through the URL so the page stays shareable.

No JS? Fill the form by hand. The geolocation button needs JavaScript.